Location: *
(44.3683°N, 6.6958°E)
Time: 12:40:53
(UTC+00:00)

STARLINK-77 - Pass Details

Date: 14 October 2019
Orbit: 549 x 551 km, 53.0° (Epoch: 16 November)

Event Time Altitude Azimuth Distance (km) Brightness Sun altitude
Rises 18:20:02 0° 252° (WSW) 2,709 8.4 -16.6°
Reaches altitude 10° 18:22:20 10° 258° (WSW) 1,818 7.4 -17.0°
Maximum altitude 18:26:20 48° 334° (NNW) 720 4.4 -17.7°
Enters shadow 18:28:36 23° 39° (NE) 1,185 5.0 -18.1°
